Regional Weather Roundup
Issued by NWS Newport/Morehead, NC

Current Version | Previous Version | Graphics & Text | Print | Product List | Glossary Off
Versions: 1 2 3 4 5 6 7 8 9 10 11 12 13 14 15 16 17 18 19 20 21 22 23 24 25 26 27 28 29 30 31 32 33 34 35 36 37 38 39 40 41 42 43 44 45 46 47 48 49 50

000
ASUS42 KMHX 250422
RWRMHX
WEATHER ROUNDUP FOR EASTERN NORTH CAROLINA
NATIONAL WEATHER SERVICE NEWPORT/MOREHEAD CITY NC
1200 AM EDT FRI JUL 25 2014

NOTE: "FAIR" INDICATES FEW OR NO CLOUDS BELOW 12,000 FEET
WITH NO SIGNIFICANT WEATHER AND/OR OBSTRUCTIONS TO VISIBILITY

NCZ015>017-031-032-045>047-102-103-250500-
NORTH COAST

CITY           SKY/WX    TMP DP  RH WIND       PRES   REMARKS
EDENTON        CLOUDY    69  67  94 N5        29.90S
ELIZABETH CITY CLOUDY    71  67  87 E14G22    29.86F
KITTY HAWK     DRIZZLE   69  68  95 NE8       29.89F
MANTEO         NOT AVBL

$$

NCZ045>047-081-094-103-104-250500-
CENTRAL COAST

CITY           SKY/WX    TMP DP  RH WIND       PRES   REMARKS
FRISCO         RAIN      75  75 100 N7        29.92R FOG
SWANQUARTER      N/A     70 N/A N/A CALM      29.88S

$$

NCZ095-097-098-100-101-250500-
SOUTHERN COAST

CITY           SKY/WX    TMP DP  RH WIND       PRES   REMARKS
BEAUFORT       HVY RAIN  72  69  90 NW15      29.98R FOG
CEDAR ISLAND     N/A     73 N/A N/A NW15      29.97S
JACKSONVILLE   LGT RAIN  73  72  94 NE16G23   29.95R
NEWPORT        NOT AVBL
PINEY ISLAND   LGT RAIN  73  32  22 N10       29.89F
WILMINGTON     MOCLDY    74  71  91 SW8       29.93R


$$

NCZ011>013-027>030-043-044-078>080-089-090>093-098-250500-
COASTAL PLAIN

CITY           SKY/WX    TMP DP  RH WIND       PRES   REMARKS
AHOSKIE        CLOUDY    69  68  96 CALM      29.94R
CLINTON        CLOUDY    70  69  99 E3        29.95S
ELIZABETHTOWN  CLOUDY    75  75 100 E3        29.95R
GOLDSBORO      CLOUDY    68  68  99 SE2       29.93R
GREENVILLE     CLOUDY    68  68 100 CALM      29.95R
HAVELOCK       TSTM      69  67  93 MISG      29.98R FOG
KENANSVILLE    CLOUDY    68  67  94 CALM      29.95F
KINSTON        CLOUDY    68  68  98 S5        29.95R
NEW BERN       HVY RAIN  72  66  83 S3        29.96R FOG
RICHLANDS      CLOUDY    70  66  88 N8        29.97R
ROANOKE RAPIDS NOT AVBL
ROCKY MOUNT    CLOUDY    67  65  93 CALM      29.95R
WASHINGTON     CLOUDY    68  66  94 NW6       29.92S
WHITEVILLE     LGT RAIN  74  72  92 CALM      29.93R

$$

AMZ130-135-150-152-154-156-158-170-250-252-270-ANZ085-086-088-633-658-670-250500-
MARINE OBSERVATIONS

STATION/POSITION TIME  TEMP    WIND        PRES    WAVE   SWELL
                       AIR SEA DIR/SP/G            HT/PER HT/PER
                 (UTC) (F)     (DEG/KT/KT) (MB)    (FT/S) (FT/S)
CHESAPEAKE LIGHT NOT AVBL
BUOY 44014       0400   74 78  190/  2/  4 1012.7    3/ 7   3/ 7
DUCK             0400   72 76   70/ 20/ 24 1011.5
2E DUCK          0400                        N/A     2/ 8
OREGON INLET     0400   72 79   30/  4/  6 1013.3
BUOY 44095       0400      77                N/A     3/ 7
20E OREGON INLET NOT AVBL
HATTERAS CG      0400   76 81  320/ 11/ 12 1013.3
DIAMOND BUOY     0400          VRB 14/ 14  1012.0    4/ 4   2/ 7
CAPE LOOKOUT     0400   74     290/ 15/ 17 1013.0
BEAUFORT LAB     0400   72 81  350/ 11/ 12 1014.2
30 SE NEW RIVER  0400   76 81  240/ 23/ 27 1013.1    4/ 6
5 SE WRIGHTSVILL 0400   72 82  240/ 19/ 21   N/A
BUOY 41002       0320   82 82  230/ 19/ 23 1016.6    5/ 6   2/12
BUOY 41004       0400   83 83  220/ 19/ 21 1013.4    4/ 5   2/ 8

$$



USA.gov is the U.S. government's official web portal to all federal, state and local government web resources and services.